Station Historical Data
Daily Summary for December 17, 2017 Units:  English    Metric   Both
« Previous Day
Next Day »
Daily Weekly Monthly Yearly Custom
  High: Low: Average:
Temperature: TemperatureF °F 19.5 °F 22.5 °F
Dew Point: DewpointF °F 12.9 °F 15.7 °F
Humidity: Humidity% 69% 75%
Wind Speed: WindSpeedMPHmph 0.0mph 3.1mph
Wind Gust: WindSpeedGustMPHmph - -
Wind- - ENE
Pressure: PressureIn in 30.09 in -
Precipitation: 0.00 in    
Historical Graphs
 
 
Tabular Data for December 17, 2017
Time Temperature Dew Point Pressure Wind Wind Speed Wind Gust Humidity Rainfall Rate (Hourly)
TemperatureF °F DewpointF °F PressureIn in Calm     Humidity% HourlyPrecipIn in
00:04 21.1 °F 13.2 °F 30.26 in NE 3.0 mph 7.0 mph 71% 0.00 in
00:09 21.0 °F 13.1 °F 30.26 in NE 2.0 mph 4.0 mph 71% 0.00 in
00:14 21.0 °F 13.1 °F 30.26 in NE 3.0 mph 7.0 mph 71% 0.00 in
00:19 21.0 °F 13.1 °F 30.26 in NE 3.0 mph 7.0 mph 71% 0.00 in
00:24 21.0 °F 13.1 °F 30.26 in ENE 3.0 mph 7.0 mph 71% 0.00 in
00:29 21.0 °F 13.1 °F 30.26 in NE 3.0 mph 7.0 mph 71% 0.00 in
00:34 20.9 °F 13.0 °F 30.25 in NE 6.0 mph 9.0 mph 71% 0.00 in
00:39 20.9 °F 13.0 °F 30.26 in NE 1.0 mph 6.0 mph 71% 0.00 in
00:44 20.9 °F 13.0 °F 30.26 in NE 1.0 mph 7.0 mph 71% 0.00 in
00:49 20.8 °F 12.9 °F 30.26 in NE 2.0 mph 7.0 mph 71% 0.00 in
00:54 20.8 °F 13.2 °F 30.25 in NE 2.0 mph 7.0 mph 72% 0.00 in
00:59 20.7 °F 13.1 °F 30.25 in NE 2.0 mph 4.0 mph 72% 0.00 in
01:05 20.7 °F 13.1 °F 30.25 in NE 2.0 mph 6.0 mph 72% 0.00 in
01:10 20.6 °F 13.0 °F 30.25 in NE 2.0 mph 5.0 mph 72% 0.00 in
01:15 20.6 °F 13.0 °F 30.25 in ENE 2.0 mph 5.0 mph 72% 0.00 in
01:20 20.6 °F 13.0 °F 30.25 in NE 3.0 mph 5.0 mph 72% 0.00 in
01:25 20.5 °F 12.9 °F 30.25 in NE 3.0 mph 7.0 mph 72% 0.00 in
01:30 20.6 °F 13.3 °F 30.26 in NE 4.0 mph 4.0 mph 73% 0.00 in
01:35 20.5 °F 13.2 °F 30.26 in ENE 4.0 mph 6.0 mph 73% 0.00 in
01:40 20.6 °F 13.3 °F 30.26 in NE 3.0 mph 7.0 mph 73% 0.00 in
01:45 20.6 °F 13.3 °F 30.26 in NE 2.0 mph 7.0 mph 73% 0.00 in
01:50 20.6 °F 13.3 °F 30.27 in NE 3.0 mph 7.0 mph 73% 0.00 in
01:55 20.6 °F 13.6 °F 30.27 in ENE 2.0 mph 5.0 mph 74% 0.00 in
02:00 20.6 °F 13.6 °F 30.27 in NE 4.0 mph 6.0 mph 74% 0.00 in
02:05 20.6 °F 13.6 °F 30.28 in NE 3.0 mph 6.0 mph 74% 0.00 in
02:10 20.7 °F 14.0 °F 30.29 in NE 2.0 mph 5.0 mph 75% 0.00 in
02:15 20.7 °F 14.0 °F 30.30 in NE 2.0 mph 7.0 mph 75% 0.00 in
02:20 20.7 °F 14.0 °F 30.29 in NE 3.0 mph 7.0 mph 75% 0.00 in
02:25 20.7 °F 14.0 °F 30.29 in East 5.0 mph 8.0 mph 75% 0.00 in
02:30 20.6 °F 13.9 °F 30.29 in NE 5.0 mph 7.0 mph 75% 0.00 in
02:35 20.7 °F 14.0 °F 30.29 in NE 4.0 mph 8.0 mph 75% 0.00 in
02:40 20.6 °F 13.9 °F 30.30 in NE 4.0 mph 8.0 mph 75% 0.00 in
02:45 20.6 °F 13.9 °F 30.30 in ENE 3.0 mph 7.0 mph 75% 0.00 in
02:50 20.6 °F 13.9 °F 30.30 in ENE 3.0 mph 7.0 mph 75% 0.00 in
02:55 20.6 °F 13.9 °F 30.31 in ENE 3.0 mph 8.0 mph 75% 0.00 in
03:00 20.6 °F 13.9 °F 30.31 in NE 3.0 mph 8.0 mph 75% 0.00 in
03:05 20.6 °F 13.9 °F 30.32 in ENE 2.0 mph 6.0 mph 75% 0.00 in
03:10 20.6 °F 13.9 °F 30.32 in ENE 3.0 mph 6.0 mph 75% 0.00 in
03:15 20.6 °F 13.9 °F 30.32 in ENE 3.0 mph 5.0 mph 75% 0.00 in
03:20 20.6 °F 13.9 °F 30.31 in NNE 4.0 mph 8.0 mph 75% 0.00 in
03:30 20.6 °F 14.2 °F 30.31 in East 2.0 mph 7.0 mph 76% 0.00 in
03:35 20.5 °F 14.1 °F 30.30 in ENE 3.0 mph 8.0 mph 76% 0.00 in
03:40 20.4 °F 14.0 °F 30.30 in NE 3.0 mph 8.0 mph 76% 0.00 in
03:50 20.3 °F 13.9 °F 30.29 in NE 4.0 mph 9.0 mph 76% 0.00 in
04:00 20.2 °F 14.1 °F 30.29 in ENE 4.0 mph 7.0 mph 77% 0.00 in
04:05 20.1 °F 14.0 °F 30.28 in ENE 4.0 mph 8.0 mph 77% 0.00 in
04:10 20.0 °F 13.9 °F 30.28 in NE 4.0 mph 9.0 mph 77% 0.00 in
04:15 20.1 °F 14.3 °F 30.28 in ENE 4.0 mph 6.0 mph 78% 0.00 in
04:20 20.0 °F 14.2 °F 30.28 in NE 3.0 mph 7.0 mph 78% 0.00 in
04:25 20.0 °F 14.2 °F 30.28 in NE 4.0 mph 6.0 mph 78% 0.00 in
04:30 19.9 °F 14.1 °F 30.28 in NE 6.0 mph 8.0 mph 78% 0.00 in
04:35 19.9 °F 14.1 °F 30.28 in NE 2.0 mph 8.0 mph 78% 0.00 in
04:40 19.8 °F 14.0 °F 30.28 in NE 6.0 mph 7.0 mph 78% 0.00 in
04:50 19.7 °F 14.0 °F 30.28 in NE 5.0 mph 11.0 mph 78% 0.00 in
04:55 19.6 °F 13.9 °F 30.28 in NE 5.0 mph 11.0 mph 78% 0.00 in
05:00 19.6 °F 13.9 °F 30.28 in ENE 4.0 mph 10.0 mph 78% 0.00 in
05:05 19.5 °F 13.8 °F 30.28 in ENE 4.0 mph 8.0 mph 78% 0.00 in
05:10 19.5 °F 13.8 °F 30.28 in ENE 4.0 mph 9.0 mph 78% 0.00 in
05:15 19.5 °F 13.8 °F 30.29 in ENE 1.0 mph 7.0 mph 78% 0.00 in
05:20 19.5 °F 13.8 °F 30.30 in ENE 2.0 mph 8.0 mph 78% 0.00 in
05:25 19.5 °F 13.8 °F 30.30 in ENE 4.0 mph 8.0 mph 78% 0.00 in
05:30 19.5 °F 13.8 °F 30.30 in ENE 4.0 mph 8.0 mph 78% 0.00 in
05:35 19.5 °F 13.8 °F 30.30 in ENE 4.0 mph 8.0 mph 78% 0.00 in
05:40 19.5 °F 13.8 °F 30.31 in NE 2.0 mph 8.0 mph 78% 0.00 in
05:45 19.5 °F 13.8 °F 30.31 in NE 5.0 mph 8.0 mph 78% 0.00 in
05:50 19.5 °F 13.8 °F 30.31 in NE 2.0 mph 8.0 mph 78% 0.00 in
05:55 19.6 °F 13.9 °F 30.30 in NE 3.0 mph 8.0 mph 78% 0.00 in
06:00 19.6 °F 13.9 °F 30.31 in NE 3.0 mph 7.0 mph 78% 0.00 in
06:05 19.6 °F 13.9 °F 30.31 in NE 3.0 mph 8.0 mph 78% 0.00 in
06:10 19.6 °F 13.9 °F 30.31 in NE 3.0 mph 8.0 mph 78% 0.00 in
06:15 19.6 °F 13.9 °F 30.30 in NE 3.0 mph 8.0 mph 78% 0.00 in
06:25 19.6 °F 13.9 °F 30.31 in ENE 4.0 mph 8.0 mph 78% 0.00 in
06:30 19.6 °F 13.9 °F 30.31 in NE 4.0 mph 8.0 mph 78% 0.00 in
06:35 19.6 °F 13.9 °F 30.32 in ENE 3.0 mph 5.0 mph 78% 0.00 in
06:40 19.6 °F 13.9 °F 30.32 in NE 2.0 mph 5.0 mph 78% 0.00 in
06:45 19.7 °F 14.0 °F 30.32 in NE 3.0 mph 8.0 mph 78% 0.00 in
06:50 19.6 °F 13.9 °F 30.32 in NE 3.0 mph 8.0 mph 78% 0.00 in
06:55 19.6 °F 13.9 °F 30.32 in NE 3.0 mph 7.0 mph 78% 0.00 in
07:00 19.7 °F 14.0 °F 30.32 in NE 3.0 mph 8.0 mph 78% 0.00 in
07:05 19.6 °F 13.9 °F 30.31 in NE 3.0 mph 8.0 mph 78% 0.00 in
07:10 19.7 °F 14.0 °F 30.31 in ENE 3.0 mph 8.0 mph 78% 0.00 in
07:14 19.7 °F 14.0 °F 30.32 in NE 6.0 mph 8.0 mph 78% 0.00 in
07:20 19.6 °F 13.9 °F 30.31 in NE 1.0 mph 6.0 mph 78% 0.00 in
07:25 19.6 °F 13.9 °F 30.31 in ENE 3.0 mph 5.0 mph 78% 0.00 in
07:29 19.7 °F 14.0 °F 30.32 in NE 2.0 mph 8.0 mph 78% 0.00 in
07:35 19.6 °F 13.9 °F 30.32 in NE 3.0 mph 8.0 mph 78% 0.00 in
07:40 19.7 °F 14.0 °F 30.32 in NE 3.0 mph 8.0 mph 78% 0.00 in
07:45 19.6 °F 13.9 °F 30.32 in NE 4.0 mph 9.0 mph 78% 0.00 in
07:50 19.6 °F 13.9 °F 30.32 in ENE 1.0 mph 6.0 mph 78% 0.00 in
07:55 19.6 °F 13.9 °F 30.32 in ENE 2.0 mph 5.0 mph 78% 0.00 in
08:00 19.7 °F 14.0 °F 30.32 in ENE 4.0 mph 5.0 mph 78% 0.00 in
08:05 19.7 °F 14.0 °F 30.33 in NE 3.0 mph 5.0 mph 78% 0.00 in
08:10 19.7 °F 14.0 °F 30.33 in ENE 3.0 mph 5.0 mph 78% 0.00 in
08:15 19.8 °F 14.0 °F 30.32 in ENE 2.0 mph 5.0 mph 78% 0.00 in
08:19 19.9 °F 14.1 °F 30.33 in ENE 2.0 mph 5.0 mph 78% 0.00 in
08:25 19.9 °F 14.1 °F 30.33 in ENE 2.0 mph 5.0 mph 78% 0.00 in
08:30 20.0 °F 14.2 °F 30.32 in ENE 2.0 mph 4.0 mph 78% 0.00 in
08:35 20.0 °F 13.9 °F 30.33 in ENE 2.0 mph 5.0 mph 77% 0.00 in
08:40 20.1 °F 14.0 °F 30.33 in ENE 2.0 mph 5.0 mph 77% 0.00 in
08:45 20.2 °F 14.1 °F 30.33 in East 2.0 mph 6.0 mph 77% 0.00 in
08:50 20.4 °F 14.3 °F 30.32 in East 2.0 mph 7.0 mph 77% 0.00 in
08:55 20.5 °F 14.4 °F 30.32 in ENE 2.0 mph 6.0 mph 77% 0.00 in
09:00 20.6 °F 14.2 °F 30.33 in ENE 2.0 mph 4.0 mph 76% 0.00 in
09:05 20.7 °F 14.3 °F 30.33 in ENE 4.0 mph 4.0 mph 76% 0.00 in
09:10 20.8 °F 14.4 °F 30.33 in East 2.0 mph 5.0 mph 76% 0.00 in
09:15 20.9 °F 14.2 °F 30.33 in East 1.0 mph 4.0 mph 75% 0.00 in
09:20 21.1 °F 14.4 °F 30.33 in ENE 2.0 mph 5.0 mph 75% 0.00 in
09:25 21.1 °F 14.4 °F 30.33 in ENE 2.0 mph 5.0 mph 75% 0.00 in
09:30 21.2 °F 14.5 °F 30.33 in NE 3.0 mph 8.0 mph 75% 0.00 in
09:35 21.2 °F 14.5 °F 30.33 in NE 3.0 mph 8.0 mph 75% 0.00 in
09:40 21.3 °F 14.6 °F 30.33 in NE 3.0 mph 5.0 mph 75% 0.00 in
09:45 21.3 °F 14.6 °F 30.33 in ENE 3.0 mph 8.0 mph 75% 0.00 in
09:50 21.4 °F 14.7 °F 30.34 in ENE 2.0 mph 6.0 mph 75% 0.00 in
09:59 21.6 °F 14.9 °F 30.34 in NE 4.0 mph 7.0 mph 75% 0.00 in
10:05 21.7 °F 15.0 °F 30.34 in NNE 4.0 mph 8.0 mph 75% 0.00 in
10:10 21.7 °F 15.0 °F 30.33 in NNE 5.0 mph 5.0 mph 75% 0.00 in
10:15 21.7 °F 15.0 °F 30.33 in NNE 4.0 mph 5.0 mph 75% 0.00 in
10:20 21.8 °F 15.1 °F 30.33 in NE 2.0 mph 5.0 mph 75% 0.00 in
10:25 21.9 °F 15.2 °F 30.33 in ENE 3.0 mph 7.0 mph 75% 0.00 in
10:30 21.9 °F 15.2 °F 30.33 in NE 4.0 mph 9.0 mph 75% 0.00 in
10:34 22.0 °F 15.3 °F 30.33 in NE 4.0 mph 9.0 mph 75% 0.00 in
10:40 22.1 °F 15.4 °F 30.33 in NE 3.0 mph 8.0 mph 75% 0.00 in
10:45 22.2 °F 15.2 °F 30.33 in NE 3.0 mph 7.0 mph 74% 0.00 in
10:50 22.4 °F 15.4 °F 30.33 in NE 7.0 mph 7.0 mph 74% 0.00 in
10:55 22.9 °F 15.5 °F 30.32 in ENE 7.0 mph 9.0 mph 73% 0.00 in
10:59 23.1 °F 15.7 °F 30.32 in NE 5.0 mph 7.0 mph 73% 0.00 in
11:00 23.1 °F 15.7 °F 30.32 in NE 4.0 mph 9.0 mph 73% 0.00 in
11:04 23.3 °F 15.9 °F 30.31 in NE 4.0 mph 8.0 mph 73% 0.00 in
11:10 23.3 °F 15.6 °F 30.31 in NE 4.0 mph 10.0 mph 72% 0.00 in
11:15 23.4 °F 15.7 °F 30.31 in ENE 4.0 mph 10.0 mph 72% 0.00 in
11:20 23.4 °F 15.7 °F 30.30 in NE 4.0 mph 9.0 mph 72% 0.00 in
11:25 23.4 °F 15.7 °F 30.30 in NE 4.0 mph 9.0 mph 72% 0.00 in
11:30 23.7 °F 16.0 °F 30.30 in ENE 4.0 mph 6.0 mph 72% 0.00 in
11:35 23.7 °F 15.7 °F 30.30 in NE 1.0 mph 7.0 mph 71% 0.00 in
11:40 23.7 °F 16.0 °F 30.29 in NE 3.0 mph 7.0 mph 72% 0.00 in
11:44 23.8 °F 15.8 °F 30.28 in NE 4.0 mph 9.0 mph 71% 0.00 in
11:50 23.8 °F 15.8 °F 30.28 in NE 5.0 mph 9.0 mph 71% 0.00 in
11:55 23.8 °F 15.8 °F 30.28 in NE 5.0 mph 11.0 mph 71% 0.00 in
11:59 23.8 °F 15.8 °F 30.28 in NE 4.0 mph 9.0 mph 71% 0.00 in
12:04 24.0 °F 16.0 °F 30.27 in ENE 3.0 mph 9.0 mph 71% 0.00 in
12:09 23.9 °F 15.5 °F 30.28 in NE 7.0 mph 8.0 mph 70% 0.00 in
12:14 24.0 °F 15.6 °F 30.28 in NE 4.0 mph 8.0 mph 70% 0.00 in
12:19 24.0 °F 15.6 °F 30.27 in NE 4.0 mph 9.0 mph 70% 0.00 in
12:25 24.0 °F 15.6 °F 30.27 in East 3.0 mph 8.0 mph 70% 0.00 in
12:29 24.3 °F 15.9 °F 30.27 in ENE 2.0 mph 5.0 mph 70% 0.00 in
12:35 24.4 °F 15.7 °F 30.27 in East 2.0 mph 6.0 mph 69% 0.00 in
12:40 24.4 °F 15.7 °F 30.26 in ENE 3.0 mph 8.0 mph 69% 0.00 in
12:45 24.3 °F 15.6 °F 30.26 in ENE 1.0 mph 6.0 mph 69% 0.00 in
12:50 24.3 °F 15.9 °F 30.26 in NE 3.0 mph 7.0 mph 70% 0.00 in
12:54 24.3 °F 15.9 °F 30.26 in ENE 3.0 mph 7.0 mph 70% 0.00 in
13:00 24.3 °F 15.6 °F 30.26 in NE 3.0 mph 6.0 mph 69% 0.00 in
13:05 24.3 °F 15.6 °F 30.26 in NE 3.0 mph 6.0 mph 69% 0.00 in
13:10 24.5 °F 15.8 °F 30.27 in NE 3.0 mph 7.0 mph 69% 0.00 in
13:15 24.7 °F 16.0 °F 30.27 in NE 4.0 mph 5.0 mph 69% 0.00 in
13:19 24.7 °F 16.0 °F 30.26 in NE 3.0 mph 8.0 mph 69% 0.00 in
13:25 24.7 °F 16.0 °F 30.26 in NE 4.0 mph 8.0 mph 69% 0.00 in
13:30 24.9 °F 16.2 °F 30.26 in NE 3.0 mph 7.0 mph 69% 0.00 in
13:35 24.9 °F 16.2 °F 30.25 in NE 3.0 mph 8.0 mph 69% 0.00 in
13:40 24.9 °F 16.2 °F 30.25 in NE 3.0 mph 7.0 mph 69% 0.00 in
13:44 24.6 °F 15.9 °F 30.25 in NE 6.0 mph 8.0 mph 69% 0.00 in
13:50 24.5 °F 15.8 °F 30.25 in NE 3.0 mph 8.0 mph 69% 0.00 in
13:54 24.3 °F 15.6 °F 30.25 in NE 4.0 mph 8.0 mph 69% 0.00 in
13:59 24.3 °F 15.6 °F 30.25 in NE 4.0 mph 9.0 mph 69% 0.00 in
14:05 24.2 °F 15.5 °F 30.25 in NE 5.0 mph 10.0 mph 69% 0.00 in
14:10 24.3 °F 15.6 °F 30.24 in NE 4.0 mph 10.0 mph 69% 0.00 in
14:15 24.3 °F 15.6 °F 30.24 in NE 4.0 mph 10.0 mph 69% 0.00 in
14:20 24.4 °F 15.7 °F 30.23 in NNE 2.0 mph 9.0 mph 69% 0.00 in
14:25 24.4 °F 15.7 °F 30.23 in NE 4.0 mph 9.0 mph 69% 0.00 in
14:29 24.5 °F 15.8 °F 30.23 in NE 4.0 mph 9.0 mph 69% 0.00 in
14:30 24.5 °F 15.8 °F 30.23 in NE 4.0 mph 9.0 mph 69% 0.00 in
14:34 24.5 °F 16.1 °F 30.22 in NE 4.0 mph 10.0 mph 70% 0.00 in
14:35 24.5 °F 16.1 °F 30.22 in NE 4.0 mph 10.0 mph 70% 0.00 in
14:45 24.5 °F 16.1 °F 30.22 in NE 4.0 mph 10.0 mph 70% 0.00 in
14:50 24.6 °F 16.2 °F 30.22 in NE 4.0 mph 10.0 mph 70% 0.00 in
14:55 24.6 °F 16.2 °F 30.22 in NE 4.0 mph 9.0 mph 70% 0.00 in
14:59 24.6 °F 16.2 °F 30.22 in NE 4.0 mph 9.0 mph 70% 0.00 in
15:04 24.6 °F 16.2 °F 30.22 in NE 4.0 mph 9.0 mph 70% 0.00 in
15:09 24.7 °F 16.3 °F 30.22 in ENE 5.0 mph 8.0 mph 70% 0.00 in
15:14 24.6 °F 16.2 °F 30.22 in NE 4.0 mph 9.0 mph 70% 0.00 in
15:20 24.5 °F 16.1 °F 30.23 in NE 4.0 mph 9.0 mph 70% 0.00 in
15:24 24.6 °F 16.2 °F 30.23 in NE 2.0 mph 6.0 mph 70% 0.00 in
15:29 24.6 °F 16.5 °F 30.23 in NE 3.0 mph 4.0 mph 71% 0.00 in
15:34 24.5 °F 16.1 °F 30.23 in NE 3.0 mph 7.0 mph 70% 0.00 in
15:39 24.4 °F 16.0 °F 30.22 in NE 4.0 mph 9.0 mph 70% 0.00 in
15:44 24.3 °F 16.2 °F 30.22 in NE 4.0 mph 9.0 mph 71% 0.00 in
15:49 24.0 °F 16.0 °F 30.22 in NE 5.0 mph 10.0 mph 71% 0.00 in
15:55 24.0 °F 16.0 °F 30.22 in NE 5.0 mph 10.0 mph 71% 0.00 in
16:00 23.9 °F 15.9 °F 30.21 in NE 7.0 mph 9.0 mph 71% 0.00 in
16:05 23.8 °F 16.1 °F 30.22 in NE 5.0 mph 9.0 mph 72% 0.00 in
16:09 23.8 °F 16.1 °F 30.21 in NE 4.0 mph 9.0 mph 72% 0.00 in
16:14 23.8 °F 16.1 °F 30.21 in NE 7.0 mph 8.0 mph 72% 0.00 in
16:19 23.8 °F 16.1 °F 30.21 in ENE 2.0 mph 8.0 mph 72% 0.00 in
16:24 23.9 °F 16.5 °F 30.21 in ENE 2.0 mph 7.0 mph 73% 0.00 in
16:29 23.9 °F 16.5 °F 30.21 in ENE 1.0 mph 5.0 mph 73% 0.00 in
16:34 23.9 °F 16.5 °F 30.21 in East 2.0 mph 4.0 mph 73% 0.00 in
16:40 24.0 °F 16.6 °F 30.22 in East 2.0 mph 6.0 mph 73% 0.00 in
16:44 24.0 °F 16.6 °F 30.21 in ENE 3.0 mph 7.0 mph 73% 0.00 in
16:49 24.0 °F 16.6 °F 30.20 in ENE 3.0 mph 8.0 mph 73% 0.00 in
16:55 24.0 °F 16.6 °F 30.20 in ENE 4.0 mph 8.0 mph 73% 0.00 in
17:00 24.0 °F 16.6 °F 30.20 in ENE 4.0 mph 8.0 mph 73% 0.00 in
17:05 24.0 °F 16.6 °F 30.20 in ENE 4.0 mph 10.0 mph 73% 0.00 in
17:10 24.0 °F 16.6 °F 30.21 in ENE 5.0 mph 10.0 mph 73% 0.00 in
17:15 24.0 °F 16.6 °F 30.21 in East 3.0 mph 7.0 mph 73% 0.00 in
17:19 24.0 °F 16.9 °F 30.21 in ENE 3.0 mph 7.0 mph 74% 0.00 in
17:20 24.0 °F 16.9 °F 30.21 in ENE 2.0 mph 6.0 mph 74% 0.00 in
17:24 24.0 °F 16.9 °F 30.21 in ENE 2.0 mph 5.0 mph 74% 0.00 in
17:29 24.0 °F 16.9 °F 30.21 in ENE 3.0 mph 8.0 mph 74% 0.00 in
17:34 24.0 °F 16.9 °F 30.21 in ENE 4.0 mph 7.0 mph 74% 0.00 in
17:39 24.0 °F 16.9 °F 30.20 in ENE 4.0 mph 8.0 mph 74% 0.00 in
17:45 24.0 °F 16.9 °F 30.20 in NE 7.0 mph 7.0 mph 74% 0.00 in
17:50 24.0 °F 16.9 °F 30.19 in NE 4.0 mph 9.0 mph 74% 0.00 in
17:59 24.0 °F 17.2 °F 30.18 in NE 5.0 mph 10.0 mph 75% 0.00 in
18:04 23.9 °F 17.1 °F 30.19 in NE 5.0 mph 10.0 mph 75% 0.00 in
18:10 23.9 °F 17.1 °F 30.19 in NE 6.0 mph 11.0 mph 75% 0.00 in
18:14 23.9 °F 17.1 °F 30.19 in NE 6.0 mph 12.0 mph 75% 0.00 in
18:20 23.8 °F 17.0 °F 30.19 in NE 5.0 mph 12.0 mph 75% 0.00 in
18:24 23.8 °F 17.0 °F 30.19 in NE 5.0 mph 10.0 mph 75% 0.00 in
18:29 23.9 °F 17.1 °F 30.18 in ENE 4.0 mph 10.0 mph 75% 0.00 in
18:34 23.8 °F 17.0 °F 30.18 in NE 2.0 mph 11.0 mph 75% 0.00 in
18:39 23.9 °F 17.1 °F 30.18 in NE 5.0 mph 9.0 mph 75% 0.00 in
18:44 23.9 °F 17.4 °F 30.18 in East 5.0 mph 8.0 mph 76% 0.00 in
18:50 24.0 °F 17.5 °F 30.18 in ENE 4.0 mph 8.0 mph 76% 0.00 in
18:54 24.0 °F 17.5 °F 30.18 in NE 6.0 mph 7.0 mph 76% 0.00 in
18:59 24.0 °F 17.5 °F 30.18 in NE 4.0 mph 9.0 mph 76% 0.00 in
19:04 24.0 °F 17.5 °F 30.17 in NE 4.0 mph 9.0 mph 76% 0.00 in
19:09 24.0 °F 17.5 °F 30.17 in ENE 4.0 mph 8.0 mph 76% 0.00 in
19:14 24.1 °F 17.6 °F 30.17 in ENE 4.0 mph 8.0 mph 76% 0.00 in
19:19 24.0 °F 17.5 °F 30.17 in ENE 4.0 mph 9.0 mph 76% 0.00 in
19:25 24.1 °F 17.6 °F 30.17 in ENE 4.0 mph 9.0 mph 76% 0.00 in
19:29 24.1 °F 17.6 °F 30.17 in ENE 4.0 mph 7.0 mph 76% 0.00 in
19:34 24.1 °F 17.9 °F 30.17 in ENE 3.0 mph 7.0 mph 77% 0.00 in
19:39 24.1 °F 17.9 °F 30.17 in NE 4.0 mph 7.0 mph 77% 0.00 in
19:44 24.1 °F 17.9 °F 30.17 in NE 5.0 mph 9.0 mph 77% 0.00 in
19:50 24.1 °F 17.9 °F 30.17 in NE 4.0 mph 9.0 mph 77% 0.00 in
19:59 24.1 °F 17.9 °F 30.17 in NE 3.0 mph 9.0 mph 77% 0.00 in
20:04 24.1 °F 17.9 °F 30.17 in NE 5.0 mph 9.0 mph 77% 0.00 in
20:09 24.2 °F 18.0 °F 30.17 in NE 4.0 mph 8.0 mph 77% 0.00 in
20:15 24.2 °F 18.3 °F 30.16 in NE 6.0 mph 8.0 mph 78% 0.00 in
20:19 24.2 °F 18.3 °F 30.16 in ENE 4.0 mph 8.0 mph 78% 0.00 in
20:20 24.2 °F 18.3 °F 30.16 in ENE 1.0 mph 7.0 mph 78% 0.00 in
20:29 24.2 °F 18.3 °F 30.15 in NE 4.0 mph 7.0 mph 78% 0.00 in
20:34 24.2 °F 18.3 °F 30.15 in ENE 3.0 mph 7.0 mph 78% 0.00 in
20:39 24.3 °F 18.4 °F 30.15 in ENE 2.0 mph 7.0 mph 78% 0.00 in
20:44 24.3 °F 18.4 °F 30.15 in NE 3.0 mph 6.0 mph 78% 0.00 in
20:45 24.3 °F 18.4 °F 30.15 in NE 5.0 mph 6.0 mph 78% 0.00 in
20:49 24.3 °F 18.4 °F 30.14 in ENE 3.0 mph 5.0 mph 78% 0.00 in
20:54 24.3 °F 18.4 °F 30.14 in ENE 1.0 mph 5.0 mph 78% 0.00 in
20:59 24.3 °F 18.4 °F 30.13 in ENE 3.0 mph 4.0 mph 78% 0.00 in
21:04 24.2 °F 18.3 °F 30.13 in East 1.0 mph 6.0 mph 78% 0.00 in
21:09 24.3 °F 18.4 °F 30.12 in East 2.0 mph 6.0 mph 78% 0.00 in
21:14 24.3 °F 18.7 °F 30.12 in East 2.0 mph 6.0 mph 79% 0.00 in
21:19 24.3 °F 18.7 °F 30.11 in East 2.0 mph 6.0 mph 79% 0.00 in
21:24 24.3 °F 18.7 °F 30.11 in East 2.0 mph 6.0 mph 79% 0.00 in
21:29 24.3 °F 18.7 °F 30.12 in East 2.0 mph 6.0 mph 79% 0.00 in
21:35 24.3 °F 18.7 °F 30.11 in ENE 1.0 mph 4.0 mph 79% 0.00 in
21:39 24.3 °F 18.7 °F 30.11 in ENE 4.0 mph 4.0 mph 79% 0.00 in
21:44 24.3 °F 18.7 °F 30.11 in ENE 3.0 mph 4.0 mph 79% 0.00 in
21:45 24.3 °F 18.7 °F 30.11 in ENE 1.0 mph 4.0 mph 79% 0.00 in
21:54 24.3 °F 18.7 °F 30.10 in East 2.0 mph 5.0 mph 79% 0.00 in
21:59 24.3 °F 18.7 °F 30.10 in ENE 2.0 mph 5.0 mph 79% 0.00 in
22:04 24.3 °F 18.7 °F 30.10 in East 3.0 mph 3.0 mph 79% 0.00 in
22:09 24.3 °F 18.7 °F 30.10 in Calm   4.0 mph 79% 0.00 in
22:15 24.4 °F 18.8 °F 30.10 in Calm   2.0 mph 79% 0.00 in
22:24 24.5 °F 19.2 °F 30.10 in Calm   3.0 mph 80% 0.00 in
22:29 24.5 °F 19.2 °F 30.10 in Calm   3.0 mph 80% 0.00 in
22:35 24.5 °F 19.2 °F 30.10 in Calm   2.0 mph 80% 0.00 in
22:39 24.6 °F 19.3 °F 30.10 in Calm   2.0 mph 80% 0.00 in
22:40 24.6 °F 19.3 °F 30.10 in Calm   1.0 mph 80% 0.00 in
22:49 24.6 °F 19.3 °F 30.11 in Calm     80% 0.00 in
22:54 24.6 °F 19.3 °F 30.11 in Calm     80% 0.00 in
22:59 24.6 °F 19.3 °F 30.11 in Calm   2.0 mph 80% 0.00 in
23:04 24.7 °F 19.4 °F 30.11 in Calm   2.0 mph 80% 0.00 in
23:09 24.8 °F 19.5 °F 30.11 in Calm     80% 0.00 in
23:15 24.8 °F 19.5 °F 30.11 in Calm     80% 0.00 in
23:19 24.8 °F 19.5 °F 30.10 in Calm     80% 0.00 in
23:24 24.9 °F 19.6 °F 30.10 in Calm     80% 0.00 in
23:29 24.9 °F 19.6 °F 30.10 in Calm   2.0 mph 80% 0.00 in
23:34 24.9 °F 19.6 °F 30.09 in Calm     80% 0.00 in
23:35 24.9 °F 19.6 °F 30.09 in Calm   2.0 mph 80% 0.00 in
23:44 25.0 °F 19.7 °F 30.09 in ENE 1.0 mph 2.0 mph 80% 0.00 in
23:49 25.1 °F 20.1 °F 30.09 in Calm   2.0 mph 81% 0.00 in
23:50 25.1 °F 20.1 °F 30.09 in Calm   2.0 mph 81% 0.00 in
23:59 25.1 °F 20.1 °F 30.09 in Calm     81% 0.00 in
Buffalo, New York, USA
Compliments of Weather Underground - 2.5 mb